Dati Storici

Data ora Umidita' aria (%) Temperatura aria (°C) Rad globale (W/m²) Gonioanemometro (°) Tacoanemometro (m/s) Pioggia (mm)
10-11-2012 09:50 81.7 % 9.299 21.832 5.602 2.332 0
10-11-2012 09:40 81.8 % 9.235 20.606 255.928 2.02 0
10-11-2012 09:30 82.2 % 9.171 17.088 10.15 1.506 0
10-11-2012 09:20 82.8 % 9.068 20.337 29.069 1.631 0
10-11-2012 09:10 82.8 % 9.007 12.34 3.88 1.261 0
10-11-2012 09:00 82.9 % 8.943 13.731 2.033 3.154 0
10-11-2012 08:50 82.9 % 8.882 25.203 36.975 2.019 0
10-11-2012 08:40 83 % 8.876 15.501 9.441 1.506 0
10-11-2012 08:30 83.4 % 8.838 11.88 2.609 1.109 0
10-11-2012 08:20 83.4 % 8.8 7.791 221.215 1.439 0
10-11-2012 08:10 83.5 % 8.792 5.936 1.185 1.497 0
10-11-2012 08:00 83.8 % 8.855 4.796 20.313 1.371 0
10-11-2012 07:50 83.8 % 8.833 4.412 5.132 1.147 0
10-11-2012 07:40 83.9 % 8.797 4.233 10.813 1.679 0
10-11-2012 07:30 83.5 % 8.678 4.335 29.135 1.358 0
10-11-2012 07:20 83.4 % 8.666 4.13 27.368 1.444 0
10-11-2012 07:10 83.2 % 8.61 4.08 6.676 1.257 0
10-11-2012 07:00 83.1 % 8.591 4.13 30.823 1.363 0
10-11-2012 06:50 83.3 % 8.558 4.207 6.159 1.018 0
10-11-2012 06:40 83.3 % 8.623 4.066 349.908 0.959 0

I dati sono presentati in modo automatico a scopo informativo. In seguito a verifica i dati possono subire modifiche o essere invalidati e non riportati negli archivi definitivi.